Location: Castellar de la Frontera
(36.3200°N, 5.4500°W)
Time: 15:25:28
(UTC+02:00)

ISS - Pass Details

Date: 17 July 2018
Orbit: 402 x 408 km, 51.6° (Epoch: 21 July)

Event Time Altitude Azimuth Distance (km) Brightness Sun altitude
Rises 06:25:53 0° 321° (NW) 2,330 0.0 -9.6°
Reaches altitude 10° 06:28:18 10° 338° (NNW) 1,468 -0.8 -9.2°
Maximum altitude 06:30:54 21° 31° (NNE) 964 -1.0 -8.8°
Drops below altitude 10° 06:33:31 10° 83° (E) 1,464 0.1 -8.4°
Sets 06:35:55 0° 100° (E) 2,322 0.8 -8.0°
